Вернуться в каталог

ATLAS 5 CENTAUR DEB

АктивенHEO
NORAD 43962·DEBRIS·🇺🇸 United States

Запущен Sep 17, 2014 с Cape Canaveral Space Force Station

Loading…

Ближайшие Пролёты (ближайшие 24 часа)

TLE

УстаревающийSource: Space-Track

Эпоха: Sep 1, 2026, 00:03 UTC

1 43962U 14055R   26244.00252807 -.00000115  00000-0  00000-0 0  9999
2 43962  20.8771 104.0598 4963332 239.4276  62.5305  1.90726537 55754

Отслеживайте ATLAS 5 CENTAUR DEB в реальном времени с AllMySat

Download on the App Store